This is the latest recevied weather packets stored in our database for station/object SR9WXP. If no packets are shown the sender has not sent any weather packets the latest 1 day(s).
| Time | Temp. | Humidity | Pressure | Rain* | Wind** | Luminosity | Snow |
|---|---|---|---|---|---|---|---|
| 1778014290 | 8.33° C | 59% | 850.5 hPa | - | 3.13 m/s, 172° | - | - |
| 1778014168 | 8.33° C | 59% | 850.5 hPa | - | 3.58 m/s, 168° | - | - |
| 1778014045 | 8.33° C | 59% | 850.5 hPa | - | 3.13 m/s, 170° | - | - |
| 1778013926 | 8.33° C | 59% | 850.5 hPa | - | 2.68 m/s, 176° | - | - |
| 1778013805 | 8.33° C | 58% | 850.6 hPa | - | 3.13 m/s, 180° | - | - |
| 1778013745 | 8.89° C | 58% | 850.6 hPa | - | 3.58 m/s, 182° | - | - |
| 1778013685 | 8.89° C | 58% | 850.6 hPa | - | 3.58 m/s, 182° | - | - |
| 1778013566 | 8.89° C | 58% | 850.7 hPa | - | 3.58 m/s, 170° | - | - |
| 1778013442 | 8.89° C | 58% | 850.7 hPa | - | 3.13 m/s, 171° | - | - |
| 1778013322 | 8.89° C | 58% | 850.7 hPa | - | 3.13 m/s, 173° | - | - |
| 1778013202 | 8.89° C | 58% | 850.7 hPa | - | 3.58 m/s, 179° | - | - |
| 1778013142 | 8.89° C | 58% | 850.7 hPa | - | 3.13 m/s, 188° | - | - |
| 1778013083 | 8.89° C | 58% | 850.7 hPa | - | 2.68 m/s, 184° | - | - |
| 1778012963 | 8.89° C | 57% | 850.7 hPa | - | 2.68 m/s, 175° | - | - |
| 1778012838 | 8.89° C | 57% | 850.7 hPa | - | 3.58 m/s, 179° | - | - |
| 1778012721 | 8.89° C | 57% | 850.7 hPa | - | 3.13 m/s, 178° | - | - |
| 1778012599 | 8.89° C | 57% | 850.7 hPa | - | 2.68 m/s, 179° | - | - |
| 1778012525 | 8.89° C | 57% | 850.7 hPa | - | 3.13 m/s, 175° | - | - |
| 1778012466 | 8.89° C | 57% | 850.7 hPa | - | 3.58 m/s, 170° | - | - |
| 1778012347 | 8.89° C | 57% | 850.7 hPa | - | 4.02 m/s, 171° | - | - |
| 1778012222 | 8.89° C | 57% | 850.7 hPa | - | 3.58 m/s, 175° | - | - |
| 1778012104 | 8.89° C | 57% | 850.8 hPa | - | 2.68 m/s, 169° | - | - |
| 1778011984 | 8.89° C | 56% | 850.8 hPa | - | 3.13 m/s, 169° | - | - |
| 1778011927 | 8.89° C | 56% | 850.8 hPa | - | 3.58 m/s, 176° | - | - |
| 1778011863 | 9.44° C | 56% | 850.8 hPa | - | 3.13 m/s, 177° | - | - |
* Rain since midnight (hover to see other rain measurements)
** Current wind speed in m/s (hover to see current wind gust speed)